Location: *
(58.7167°N, 26.1833°E)
Time: 05:51:31
(UTC+00:00)

Helios 1B rocket - Pass Details

Date: 25 August 2019
Orbit: 574 x 585 km, 98.1° (Epoch: 19 September)

Event Time Altitude Azimuth Distance (km) Brightness Sun altitude
Rises 20:49:39 0° 23° (NNE) 2,816 6.6 -18.4°
Reaches altitude 10° 20:52:12 10° 38° (NE) 1,909 5.4 -18.5°
Maximum altitude 20:55:30 23° 92° (E) 1,265 3.9 -18.7°
Enters shadow 20:55:48 23° 98° (E) 1,271 3.9 -18.7°
